User: anonymous   Login
Location: Newark
(25.1987°N, 100.3705°W)
Time: 04:58:58
(UTC+00:00)
Language:

LightSail 2 - Orbit

View from above orbital plane
View from above orbital plane
View from above satellite
View from above satellite

Ground track
Ground track

The orbit data is extracted from the following two-line orbital elements,

1 44420U 19036AC  20149.50883989  .00003560  00000-0  75223-3 0  9995
2 44420 024.0098 233.8378 0016905 299.2118 060.6724 14.55527756047414
Epoch (UTC): 28 May 2020 12:12:43
Eccentricity: 0.0016905
inclination: 24.0098°
perigee height: 695 km
apogee height: 719 km
right ascension of ascending node: 233.8378°
argument of perigee: 299.2118°
revolutions per day: 14.55527756
mean anomaly at epoch: 60.6724°
orbit number at epoch: 4741

The dashed part of the orbit path shows where the satellite is in the earth's shadow,  

DLR